Weather History for Muscatine, IA

Change the Weather History Date:

Saturday, January 19, 2013

  Actual Average Record
Temperature  
Mean Temperature 39 °F -  
Max Temperature 55 °F 32 °F 59 °F (1951)
Min Temperature 21 °F 12 °F -21 °F (1985)
Degree Days  
Heating Degree Days 26    
Moisture  
Dew Point 28 °F    
Average Humidity 57    
Maximum Humidity 75    
Minimum Humidity 33    
Precipitation  
Precipitation 0.00 in - - ()
Sea Level Pressure  
Sea Level Pressure 29.92 in    
Wind  
Wind Speed 13 mph (WSW)    
Max Wind Speed 36 mph    
Max Gust Speed 47 mph    
Visibility 10 miles    
Events      
Averages and records for this station are not official NWS values.
T = Trace of Precipitation, MM = Missing Value Source: NWS Daily Summary

Daily Weather History Graph

Daily Weather History Graph

Search for Another Location

Airport:

Trip Planner

Search our weather history database for the weather conditions in past years. The results will help you decide how hot, cold, wet, or windy it might be!

Date:

Astronomy

Jan. 19, 2013 Rise Set
Actual Time 7:26 AM CST 5:05 PM CST
Civil Twilight 6:55 AM CST 5:35 PM CST
Nautical Twilight 6:22 AM CST 6:09 PM CST
Astronomical Twilight 5:49 AM CST 6:42 PM CST
Moon 11:32 AM CST (1/19) 12:59 AM CST (1/19)
Length of Visible Light 10h 39m
Length of Day
9h 39m
First Quarter, 57% of the Moon is Illuminated
Jan 19
First Quarter
Jan 26
Full
Feb 3
Last Quarter
Feb 10
New
Feb 17
First Quarter

Hourly Weather History & Observations

Time (CST) Temp. Windchill Dew Point Humidity Pressure Visibility Wind Dir Wind Speed Gust Speed Precip Events Conditions
12:15 AM 42.8 °F 35.8 °F 30.2 °F 61% 29.92 in 10.0 mi SW 13.8 mph - N/A   Clear
12:35 AM 42.8 °F 35.8 °F 30.2 °F 61% 29.92 in 10.0 mi SW 13.8 mph - N/A   Clear
12:55 AM 42.8 °F 35.8 °F 30.2 °F 61% 29.92 in 10.0 mi SW 13.8 mph - N/A   Clear
1:15 AM 42.8 °F 35.8 °F 30.2 °F 61% 29.92 in 10.0 mi SW 13.8 mph 18.4 mph N/A   Clear
1:35 AM 42.8 °F 36.2 °F 30.2 °F 61% 29.92 in 10.0 mi SW 12.7 mph - N/A   Clear
1:55 AM 42.8 °F 36.2 °F 30.2 °F 61% 29.92 in 10.0 mi SW 12.7 mph - N/A   Clear
2:15 AM 41.0 °F 34.7 °F 30.2 °F 65% 29.93 in 10.0 mi SSW 10.4 mph - N/A   Clear
2:35 AM 39.2 °F 35.0 °F 30.2 °F 70% 29.93 in 10.0 mi SSW 5.8 mph - N/A   Clear
2:55 AM 37.4 °F 34.9 °F 30.2 °F 75% 29.92 in 10.0 mi South 3.5 mph - N/A   Clear
3:15 AM 37.4 °F 33.8 °F 30.2 °F 75% 29.91 in 10.0 mi South 4.6 mph - N/A   Clear
3:35 AM 37.4 °F 32.8 °F 30.2 °F 75% 29.91 in 10.0 mi South 5.8 mph - N/A   Clear
3:55 AM 39.2 °F 35.0 °F 30.2 °F 70% 29.90 in 10.0 mi South 5.8 mph - N/A   Clear
4:15 AM 37.4 °F 34.9 °F 30.2 °F 75% 29.89 in 10.0 mi SSE 3.5 mph - N/A   Clear
4:35 AM 39.2 °F 37.0 °F 30.2 °F 70% 29.89 in 10.0 mi SSE 3.5 mph - N/A   Clear
4:55 AM 39.2 °F 34.2 °F 30.2 °F 70% 29.88 in 10.0 mi South 6.9 mph - N/A   Clear
5:15 AM 39.2 °F 34.2 °F 30.2 °F 70% 29.88 in 10.0 mi South 6.9 mph - N/A   Clear
5:35 AM 39.2 °F 33.0 °F 30.2 °F 70% 29.88 in 10.0 mi SSW 9.2 mph - N/A   Clear
5:55 AM 39.2 °F 33.0 °F 30.2 °F 70% 29.87 in 10.0 mi South 9.2 mph - N/A   Clear
6:55 AM 39.2 °F 35.9 °F 30.2 °F 70% 29.87 in 10.0 mi South 4.6 mph - N/A   Clear
7:15 AM 37.4 °F 32.8 °F 30.2 °F 75% 29.87 in 10.0 mi South 5.8 mph - N/A   Clear
7:55 AM 39.2 °F 35.0 °F 30.2 °F 70% 29.86 in 10.0 mi SSE 5.8 mph - N/A   Clear
8:15 AM 39.2 °F 35.0 °F 30.2 °F 70% 29.87 in 10.0 mi South 5.8 mph - N/A   Clear
8:35 AM 39.2 °F 34.2 °F 30.2 °F 70% 29.85 in 10.0 mi South 6.9 mph - N/A   Clear
9:35 AM 44.6 °F 40.2 °F 32.0 °F 61% 29.88 in 10.0 mi SW 8.1 mph - N/A   Clear
9:55 AM 44.6 °F 39.7 °F 32.0 °F 61% 29.88 in 10.0 mi SW 9.2 mph 16.1 mph N/A   Clear
10:15 AM 44.6 °F 39.7 °F 32.0 °F 61% 29.87 in 10.0 mi SW 9.2 mph - N/A   Clear
10:35 AM 44.6 °F 41.4 °F 32.0 °F 61% 29.87 in 10.0 mi SW 5.8 mph - N/A   Clear
10:55 AM 46.4 °F 42.4 °F 32.0 °F 57% 29.87 in 10.0 mi WSW 8.1 mph - N/A   Clear
11:15 AM 46.4 °F 42.4 °F 32.0 °F 57% 29.85 in 10.0 mi SW 8.1 mph - N/A   Clear
11:35 AM 46.4 °F 41.5 °F 32.0 °F 57% 29.84 in 10.0 mi WSW 10.4 mph 16.1 mph N/A   Clear
11:55 AM 46.4 °F 40.7 °F 32.0 °F 57% 29.83 in 10.0 mi WSW 12.7 mph 16.1 mph N/A   Clear
12:15 PM 50.0 °F - 32.0 °F 50% 29.82 in 10.0 mi WSW 16.1 mph 19.6 mph N/A   Clear
12:35 PM 51.8 °F - 30.2 °F 44% 29.82 in 10.0 mi WSW 13.8 mph 26.5 mph N/A   Clear
12:55 PM 51.8 °F - 30.2 °F 44% 29.81 in 10.0 mi SW 18.4 mph 23.0 mph N/A   Clear
1:35 PM 53.6 °F - 30.2 °F 41% 29.80 in 10.0 mi West 17.3 mph - N/A   Clear
1:55 PM 55.4 °F - 30.2 °F 38% 29.80 in 10.0 mi West 18.4 mph 21.9 mph N/A   Clear
2:15 PM 55.4 °F - 30.2 °F 38% 29.81 in 10.0 mi West 13.8 mph - N/A   Clear
2:35 PM 55.4 °F - 28.4 °F 36% 29.80 in 10.0 mi West 18.4 mph 25.3 mph N/A   Clear
2:55 PM 55.4 °F - 26.6 °F 33% 29.81 in 10.0 mi West 19.6 mph 25.3 mph N/A   Clear
3:15 PM 55.4 °F - 26.6 °F 33% 29.82 in 10.0 mi West 23.0 mph - N/A   Clear
3:35 PM 53.6 °F - 26.6 °F 35% 29.83 in 10.0 mi West 19.6 mph 26.5 mph N/A   Clear
3:55 PM 53.6 °F - 28.4 °F 38% 29.84 in 10.0 mi WNW 19.6 mph 23.0 mph N/A   Clear
4:15 PM 51.8 °F - 28.4 °F 41% 29.86 in 10.0 mi West 16.1 mph 24.2 mph N/A   Clear
4:35 PM 51.8 °F - 28.4 °F 41% 29.86 in 10.0 mi West 13.8 mph - N/A   Clear
4:55 PM 48.2 °F - 30.2 °F 50% 29.88 in 10.0 mi West 12.7 mph - N/A   Clear
5:15 PM 48.2 °F - 30.2 °F 50% 29.89 in 10.0 mi WNW 16.1 mph - N/A   Clear
5:35 PM 46.4 °F 40.1 °F 30.2 °F 53% 29.91 in 10.0 mi West 15.0 mph 25.3 mph N/A   Clear
5:55 PM 46.4 °F 39.8 °F 30.2 °F 53% 29.92 in 10.0 mi West 16.1 mph - N/A   Clear
6:15 PM 44.6 °F 38.1 °F 30.2 °F 57% 29.93 in 10.0 mi West 13.8 mph - N/A   Clear
6:35 PM 42.8 °F 37.5 °F 30.2 °F 61% 29.94 in 10.0 mi West 9.2 mph - N/A   Clear
6:55 PM 42.8 °F 36.2 °F 30.2 °F 61% 29.95 in 10.0 mi West 12.7 mph - N/A   Clear
7:15 PM 42.8 °F 34.5 °F 30.2 °F 61% 29.96 in 10.0 mi West 18.4 mph 23.0 mph N/A   Clear
7:35 PM 44.6 °F 37.2 °F 30.2 °F 57% 29.97 in 10.0 mi WNW 17.3 mph 26.5 mph N/A   Scattered Clouds
7:55 PM 42.8 °F 34.8 °F 30.2 °F 61% 29.98 in 10.0 mi West 17.3 mph - N/A   Mostly Cloudy
8:15 PM 42.8 °F 33.5 °F 30.2 °F 61% 29.99 in 10.0 mi WNW 23.0 mph 27.6 mph N/A   Overcast
8:35 PM 42.8 °F 32.1 °F 28.4 °F 57% 30.01 in 10.0 mi NW 31.1 mph 38.0 mph N/A   Overcast
8:55 PM 39.2 °F 28.3 °F 26.6 °F 61% 30.02 in 10.0 mi NW 25.3 mph 33.4 mph N/A   Scattered Clouds
9:15 PM 35.6 °F 23.2 °F 24.8 °F 65% 30.04 in 10.0 mi NW 26.5 mph 36.8 mph N/A   Clear
9:35 PM 33.8 °F 20.5 °F 21.2 °F 60% 30.06 in 10.0 mi NW 27.6 mph 36.8 mph N/A   Clear
9:55 PM 32.0 °F 17.6 °F 19.4 °F 60% 30.08 in 10.0 mi NW 29.9 mph 42.6 mph N/A   Scattered Clouds
10:15 PM 28.4 °F 11.6 °F 8.6 °F 43% 30.10 in 10.0 mi NW 35.7 mph 47.2 mph N/A   Scattered Clouds
10:35 PM 26.6 °F 9.6 °F 6.8 °F 43% 30.12 in 10.0 mi NW 33.4 mph 41.4 mph N/A   Scattered Clouds
10:55 PM 24.8 °F 8.7 °F 6.8 °F 46% 30.14 in 10.0 mi WNW 26.5 mph 38.0 mph N/A   Clear
11:15 PM 24.8 °F 11.9 °F 8.6 °F 50% 30.16 in 10.0 mi NW 16.1 mph 26.5 mph N/A   Clear
11:35 PM 23.0 °F 8.7 °F 10.4 °F 59% 30.18 in 10.0 mi WNW 18.4 mph 24.2 mph N/A   Clear
11:55 PM 21.2 °F 7.3 °F 8.6 °F 58% 30.19 in 10.0 mi WNW 16.1 mph 25.3 mph N/A   Clear